COSMOS 2251 DEB, 33830

Orbit data source: Space-Track

COSMOS 2251 DEB, 33830 is space debris in LEO originally from a launch on Wed, 16 Jun 1993 UTC launched from the Plesetsk Missile And Space Complex (PKMTR). The debris from Iridium 33, an American commercial communications satellite, has been tracked extensively since its accidental collision with the defunct Russian satellite Cosmos 2251 in 2009. This event, occurring at high speed in low Earth orbit (LEO), generated thousands of pieces of space debris, significantly increasing the risk of further collisions. The Iridium 33 debris cloud has impacted space traffic management and orbital debris mitigation strategies, making it a subject of ongoing study in space situational awareness.

Loading next visibility...
Identifier
33830, 1993-036BX
Orbit
LEO
Country
Flag of CISCIS
Related business
Manufacturer
Unknown
Mission
Spacecraft
Bus & Motor
Unknown
Mass
Unknown
Launch date (UTC)
1993-06-16 (33 years ago)
Launch vehicle
Unknown
Launch site
Plesetsk Missile And Space Complex (PKMTR)
Object type
Payload
Rocket body
Debris
Shape & HBR
Unknown shape, 0.2 m
Radar Cross Section
Medium (>0.1 m² and <1 m²)

Expand to show TLE details & history
Last TLE update: 20 hours ago

TLE from 20 hours ago
0 COSMOS 2251 DEB
1 33830U 93036BX  26061.47269925  .00006455  00000-0  88446-3 0  9990
2 33830  74.0302  73.8966 0041573 179.4946 300.3596 14.78055693906496
Epoch: 2026-03-02T11:20Z
TLE epoch observation values (Epoch: 2026-03-02T11:20:41.215Z)
Latitude
56.96048°
Longitude
-102.49279°
Altitude
630.019 km
Speed
7.557 km/s
True Right ascension
15h 11m 46s
True Declination
56° 48' 01"
Sunlit
Object was in daylight at epoch
Visualization orbit readout
Latitude
Unknown
Longitude
Unknown
Altitude
Unknown
Speed
Unknown
Apparent Right ascension
Unknown
Apparent Declination
Unknown
Sunlit
N/A
Visualization observer readout
Local Sidereal Time
11:08:13
Azimuth
Unknown
Elevation
Unknown
Doppler factor
Unknown
Orbital elements
Apogee altitude
662.194 km
Perigee altitude
603.899 km
Semi-major axis
7,011.183 km
Eccentricity
0.00416
Inclination
74.0302°
RAAN
73.8966°
Arg. of periapsis
179.4946°
True anomaly
299.94746°
Mean anomaly
300.3596°
Eccentric anomaly
300.15364°
Mean motion
3.69706 °/min
Orbital period
97.37 mins
BSTAR
0.00088446
Loading maneuver chart data...
Computing Atmospheric mass density...

Documentation

Showing up to 5 results
|